Wind_Speed
39 40 41 40 39 39 40 40 40 40 40 40 41 41 41 41 41 40 39 39 38 38 37 36 36 35 35 34 35 35 34 34 34 33 33 33 32 32 32 32 31 31 32
40 40 40 40 40 40 40 40 41 40 41 41 41 42 42 42 42 41 41 40 40 40 39 39 38 38 37 36 36 36 36 35 35 34 34 34 33 33 33 33 33 32 33
40 40 40 41 40 41 41 41 42 42 42 42 42 43 43 43 43 43 43 43 42 42 42 41 41 40 40 39 39 38 38 37 37 36 36 35 35 34 34 34 34 34 34
40 40 40 40 40 41 41 42 42 42 43 43 43 44 44 45 45 45 45 44 44 44 44 43 42 42 42 42 41 41 40 39 39 38 38 38 37 37 36 35 36 35 35
40 40 41 41 41 41 41 42 44 44 44 44 45 45 46 46 46 46 46 45 46 45 45 45 44 44 44 44 43 43 43 42 41 41 41 40 40 39 38 37 37 37 37
40 40 41 41 41 42 42 42 44 44 45 46 46 47 47 47 48 47 47 46 46 46 46 47 46 45 45 45 45 45 44 44 43 43 43 42 42 41 40 39 39 39 38
41 41 41 42 42 42 43 43 44 45 45 46 46 47 47 48 48 48 48 48 48 48 47 48 48 47 47 46 46 46 45 45 45 44 44 44 44 43 42 42 42 41 40
43 43 42 42 43 43 43 43 43 43 43 44 44 44 45 46 48 48 49 49 49 49 48 48 49 49 48 48 48 47 46 46 45 46 46 46 46 45 44 44 43 43 42
43 44 44 43 44 44 44 43 42 42 42 43 43 43 44 45 46 47 48 48 49 49 50 49 50 50 50 50 49 48 47 47 46 47 47 47 47 46 45 45 45 44 44
43 44 44 44 43 42 42 42 42 42 43 43 44 44 44 45 46 46 47 47 48 48 49 49 49 50 50 50 50 49 48 49 48 48 48 48 48 48 47 46 46 47 46
43 43 44 44 43 42 42 41 42 43 43 44 44 45 45 46 46 46 46 46 47 47 48 49 48 49 49 49 49 49 48 49 48 48 48 48 49 49 49 48 48 48 48
41 42 42 43 43 44 44 43 43 43 43 44 45 45 46 46 46 46 47 47 47 47 48 48 49 48 49 49 50 50 49 49 49 49 48 48 49 49 49 49 49 49 49
42 42 42 43 43 44 44 45 44 44 44 45 45 45 46 46 46 47 48 47 47 47 47 47 47 47 48 50 50 50 50 49 49 49 48 49 49 50 50 50 49 49 48
41 41 42 43 43 44 44 44 45 45 45 45 45 46 46 45 45 45 46 46 46 46 46 46 46 46 47 48 49 49 49 49 49 49 48 49 49 50 50 50 50 49 49
42 41 42 42 42 43 44 44 44 44 45 45 46 46 45 45 45 45 45 45 45 45 45 45 45 45 47 47 47 48 48 49 49 49 49 49 49 50 49 49 49 49 49
41 41 41 41 41 41 41 42 43 43 44 44 44 44 44 43 42 42 43 44 44 44 43 43 44 44 45 46 47 47 47 49 49 49 48 48 48 48 48 48 48 48 48
40 41 40 40 40 40 40 41 41 42 43 42 42 42 42 41 40 40 40 41 42 43 43 43 43 42 43 45 45 45 45 47 47 48 48 48 47 47 47 47 47 48 47
39 40 40 39 39 39 40 39 39 39 40 40 40 41 40 39 39 40 40 40 41 41 42 41 41 41 42 43 43 43 43 44 45 46 47 47 47 47 46 47 46 45 45
38 38 38 37 37 37 38 38 38 37 38 38 39 39 38 38 38 38 38 39 39 39 40 40 40 41 40 40 41 41 41 42 43 43 45 46 46 46 46 46 45 45 44
38 37 36 35 35 36 36 36 37 37 37 37 37 37 37 37 37 37 37 37 37 37 38 39 40 41 40 39 40 40 41 42 42 42 42 43 44 44 44 44 44 44 44
36 35 34 34 33 33 34 35 35 36 36 36 36 35 35 36 36 37 37 36 36 36 37 38 39 39 39 39 40 40 40 40 40 40 41 41 42 43 43 43 43 43 43
34 34 33 32 32 33 33 33 34 34 33 33 33 33 34 34 34 35 35 35 35 35 35 36 35 36 37 37 38 38 38 38 39 39 39 40 40 40 40 42 42 43 43
34 33 32 31 32 32 33 32 32 31 31 30 30 31 31 32 32 32 33 33 33 33 33 33 33 33 34 34 35 36 36 37 37 37 39 39 39 39 40 41 42 42 42
33 32 31 31 32 32 32 31 30 30 29 29 29 28 28 28 29 30 31 31 31 31 31 30 31 32 32 33 33 34 35 36 37 37 37 37 38 39 40 40 40 40 40
31 31 31 31 31 31 30 30 29 28 28 28 28 27 27 27 27 27 28 28 28 29 29 29 30 30 30 31 32 32 33 33 34 35 36 37 37 38 38 39 39 39 39
29 29 29 29 30 30 29 29 28 27 27 27 27 26 26 26 26 26 26 26 26 26 27 28 29 29 30 30 29 30 31 31 32 33 34 35 36 36 36 37 38 38 38
Wind_Direction
270 269 269 269 268 265 264 262 261 261 260 260 259 259 258 259 259 259 259 260 261 263 263 264 264 264 264 264 264 263 264 264 264 264 264 263 263 264 264 265 266 267 268
270 270 268 268 267 266 265 263 262 261 261 261 260 259 258 259 259 260 260 260 261 262 262 263 264 264 264 264 264 264 264 264 264 264 263 262 262 264 264 264 266 267 268
271 270 269 268 268 267 266 266 264 262 263 262 261 260 259 259 259 260 260 261 261 261 261 262 263 263 264 264 264 264 264 263 263 263 262 262 263 263 263 264 266 267 268
270 270 269 268 268 268 267 267 266 264 263 263 262 261 261 260 260 260 260 261 261 261 261 262 262 263 263 264 264 264 263 263 263 262 262 262 263 263 264 264 265 266 268
269 269 269 269 268 268 268 267 267 266 264 263 262 262 262 261 261 261 260 260 261 261 261 262 263 263 263 264 264 265 264 263 263 262 262 261 262 263 263 265 266 266 268
269 269 269 269 269 268 269 269 268 268 266 264 264 264 263 262 262 261 260 260 261 262 261 261 262 263 263 263 263 263 263 263 262 262 261 261 260 261 262 263 265 266 267
270 270 270 269 268 268 269 269 269 269 269 267 265 264 264 263 262 261 260 260 261 262 262 262 261 262 262 262 262 262 262 262 261 261 260 260 260 260 261 262 264 265 267
270 270 271 270 269 269 269 270 269 269 270 268 266 265 264 263 262 262 262 260 260 261 262 262 261 261 262 261 262 262 262 261 261 260 259 259 259 260 261 261 263 264 265
271 271 270 271 271 270 269 270 269 269 269 269 268 267 266 264 264 264 263 262 261 261 261 261 260 261 261 261 261 261 261 262 262 261 260 259 259 260 261 261 261 263 265
272 272 271 271 271 271 270 270 270 269 269 270 270 270 269 268 266 265 264 263 262 262 262 261 261 260 261 261 261 261 261 261 261 261 261 260 259 259 260 261 261 263 265
274 273 273 271 271 270 270 271 271 271 271 271 272 272 270 270 269 267 264 263 263 262 262 261 261 261 261 261 261 261 261 262 261 261 261 260 260 259 260 261 262 263 265
275 275 274 272 271 271 270 270 271 272 271 271 272 272 272 271 270 268 265 263 262 261 261 262 262 262 262 262 262 262 262 262 262 261 261 261 260 259 260 261 262 263 264
275 276 274 274 273 272 272 271 271 271 271 271 271 273 272 271 269 268 266 264 263 260 260 262 263 263 264 263 263 263 263 262 262 261 262 262 261 260 260 261 262 263 263
276 277 275 274 274 273 273 273 272 271 270 271 271 272 272 270 268 267 266 265 263 261 260 261 262 264 264 263 263 262 262 262 261 261 262 262 261 260 261 261 263 263 264
277 277 276 275 275 275 275 274 273 272 271 270 271 271 271 270 268 268 266 265 264 262 261 261 262 263 263 263 264 263 262 262 262 262 262 262 261 260 260 261 262 263 263
279 279 277 276 276 276 275 275 273 273 272 271 271 270 269 268 267 266 266 265 264 263 262 262 263 263 263 263 264 264 264 263 263 262 262 262 261 260 261 262 262 263 263
281 281 280 278 277 276 277 276 275 273 273 271 270 269 268 267 266 265 265 265 265 264 264 264 264 263 263 263 264 265 265 265 264 263 262 262 260 260 261 263 263 263 263
281 281 281 279 277 277 277 277 276 275 273 271 270 269 267 265 265 265 265 265 266 265 266 265 264 264 265 265 265 265 265 264 264 263 262 261 260 259 261 262 262 263 263
281 281 281 279 278 278 277 276 276 275 273 272 271 269 267 266 266 266 266 266 266 266 266 266 267 267 267 266 266 265 265 264 263 262 261 259 258 259 260 261 262 263 264
281 281 280 279 279 279 278 278 277 275 274 272 271 269 267 266 265 266 266 265 266 266 266 267 268 267 267 267 267 267 265 264 262 260 259 258 257 258 259 261 263 263 264
281 281 279 279 279 280 280 280 279 276 274 272 271 270 268 266 266 266 265 265 267 267 268 268 267 267 267 269 268 267 266 264 263 261 259 257 257 258 259 261 263 264 265
281 280 279 279 279 280 281 280 279 277 275 273 272 271 269 268 267 266 265 265 266 268 268 269 268 268 270 271 270 269 268 266 264 261 258 257 257 258 261 263 264 265 265
281 280 279 279 280 281 282 281 279 277 276 275 274 273 272 269 267 266 264 264 266 268 269 270 270 270 270 269 270 270 268 268 266 263 261 260 260 262 263 263 265 266 266
280 279 279 279 280 281 282 280 278 278 277 276 275 274 273 270 268 266 265 265 266 267 268 270 271 269 268 269 269 270 269 268 268 265 265 264 265 265 265 266 267 267 267
281 280 279 279 280 280 280 279 278 276 275 275 275 274 273 271 269 267 266 266 266 267 268 270 271 269 269 270 269 270 270 270 269 267 267 266 267 267 266 266 266 266 266
283 281 281 280 279 278 278 277 276 276 275 273 273 272 272 271 270 269 268 268 269 270 270 270 272 272 272 270 269 270 270 270 269 268 267 267 267 267 267 266 266 266 266
Height
5757 5757 5757 5757 5757 5758 5759 5759 5760 5762 5763 5764 5765 5767 5768 5770 5772 5773 5775 5776 5778 5779 5780 5781 5782 5783 5783 5784 5785 5786 5787 5788 5789 5789 5790 5791 5791 5792 5793 5794 5794 5795 5796
5747 5747 5747 5747 5747 5748 5748 5750 5750 5752 5753 5754 5755 5756 5758 5760 5762 5763 5765 5767 5768 5769 5770 5772 5773 5774 5775 5776 5777 5778 5779 5780 5781 5781 5782 5783 5784 5785 5786 5787 5787 5788 5788
5737 5737 5737 5737 5737 5737 5738 5739 5740 5741 5742 5744 5745 5746 5747 5749 5751 5753 5755 5756 5758 5759 5760 5761 5763 5764 5765 5766 5768 5769 5770 5771 5772 5773 5774 5775 5776 5777 5778 5779 5780 5780 5781
5728 5727 5727 5727 5727 5727 5728 5728 5729 5730 5731 5733 5734 5735 5737 5738 5740 5742 5743 5745 5747 5748 5750 5751 5752 5753 5755 5756 5757 5758 5760 5761 5762 5763 5765 5766 5767 5768 5770 5771 5772 5772 5773
5718 5718 5717 5717 5717 5717 5717 5717 5718 5719 5720 5721 5723 5724 5725 5726 5728 5730 5732 5733 5735 5737 5738 5740 5741 5742 5744 5745 5746 5747 5749 5751 5752 5753 5755 5756 5758 5759 5761 5762 5763 5764 5764
5708 5707 5707 5707 5707 5707 5707 5707 5707 5707 5708 5709 5710 5712 5713 5714 5715 5717 5719 5721 5723 5725 5726 5728 5729 5730 5732 5733 5734 5736 5737 5739 5741 5742 5744 5745 5747 5749 5751 5752 5753 5754 5755
5697 5697 5697 5697 5696 5696 5696 5696 5696 5696 5696 5697 5698 5699 5700 5701 5703 5705 5706 5708 5710 5712 5713 5715 5717 5718 5720 5721 5722 5724 5725 5727 5729 5730 5732 5734 5736 5738 5740 5741 5743 5744 5745
5687 5686 5686 5686 5685 5685 5685 5685 5684 5684 5685 5685 5685 5686 5688 5689 5690 5692 5693 5695 5697 5699 5700 5702 5704 5705 5707 5708 5710 5711 5713 5714 5716 5718 5720 5722 5724 5726 5728 5730 5732 5734 5735
5675 5675 5675 5674 5674 5674 5673 5673 5673 5673 5674 5673 5673 5674 5675 5677 5678 5679 5681 5682 5683 5685 5687 5688 5690 5692 5694 5695 5697 5698 5700 5702 5704 5705 5707 5709 5712 5714 5717 5719 5720 5722 5724
5664 5664 5663 5663 5662 5662 5662 5662 5662 5662 5662 5662 5662 5662 5663 5663 5664 5667 5668 5669 5670 5672 5673 5675 5677 5679 5680 5682 5684 5685 5687 5689 5691 5693 5695 5697 5699 5702 5704 5707 5709 5710 5712
5653 5652 5652 5651 5651 5651 5651 5651 5650 5651 5651 5651 5651 5651 5651 5651 5651 5652 5655 5657 5658 5659 5660 5662 5664 5665 5667 5669 5670 5672 5674 5676 5678 5680 5682 5684 5686 5689 5692 5694 5696 5698 5700
5642 5641 5640 5640 5639 5639 5639 5639 5639 5639 5639 5639 5639 5638 5638 5638 5638 5639 5641 5643 5645 5647 5648 5649 5651 5652 5654 5656 5658 5660 5661 5663 5665 5667 5669 5671 5674 5676 5679 5682 5684 5686 5688
5632 5630 5629 5628 5628 5627 5627 5627 5627 5627 5627 5627 5627 5626 5626 5626 5626 5626 5627 5629 5631 5634 5635 5637 5638 5640 5642 5643 5645 5647 5649 5650 5652 5654 5656 5659 5661 5663 5666 5669 5671 5673 5675
5621 5619 5617 5616 5616 5615 5615 5615 5615 5615 5614 5614 5614 5614 5614 5613 5613 5613 5614 5616 5618 5620 5623 5625 5626 5627 5629 5630 5632 5634 5636 5638 5639 5641 5643 5646 5648 5650 5653 5656 5658 5660 5662
5609 5607 5606 5605 5604 5603 5603 5603 5602 5602 5602 5602 5602 5601 5601 5601 5601 5601 5602 5603 5606 5608 5611 5612 5614 5615 5617 5618 5619 5621 5623 5624 5626 5629 5631 5633 5635 5637 5640 5642 5645 5647 5648
5598 5596 5594 5593 5592 5592 5591 5591 5590 5590 5589 5589 5589 5589 5589 5589 5589 5590 5591 5592 5594 5596 5598 5600 5602 5603 5604 5606 5607 5609 5610 5612 5613 5615 5618 5620 5622 5625 5627 5629 5631 5633 5635
5587 5585 5583 5582 5581 5581 5580 5579 5578 5578 5577 5577 5577 5577 5577 5577 5578 5578 5579 5581 5582 5584 5586 5588 5590 5591 5592 5594 5595 5596 5597 5599 5601 5603 5604 5607 5609 5612 5614 5617 5618 5620 5622
5577 5575 5573 5571 5570 5569 5569 5568 5567 5566 5566 5565 5565 5565 5565 5566 5567 5567 5568 5570 5571 5573 5574 5576 5578 5579 5580 5581 5583 5584 5585 5587 5588 5590 5592 5594 5597 5599 5602 5604 5606 5608 5609
5567 5564 5562 5561 5560 5559 5558 5557 5556 5555 5555 5554 5554 5554 5554 5555 5556 5557 5558 5559 5560 5561 5563 5565 5567 5568 5569 5569 5571 5572 5573 5575 5576 5577 5579 5581 5584 5587 5589 5591 5593 5595 5597
5557 5555 5553 5551 5550 5549 5548 5547 5545 5544 5544 5543 5543 5543 5543 5544 5545 5546 5547 5548 5549 5551 5552 5553 5555 5556 5557 5558 5559 5561 5561 5563 5564 5566 5568 5570 5572 5574 5577 5579 5581 5583 5584
5547 5545 5543 5542 5540 5539 5538 5536 5535 5534 5533 5532 5532 5532 5533 5533 5534 5535 5537 5538 5539 5540 5541 5543 5544 5545 5546 5547 5548 5548 5549 5550 5552 5554 5556 5559 5561 5564 5565 5567 5568 5570 5571
5537 5535 5534 5533 5531 5530 5528 5526 5525 5524 5523 5523 5523 5522 5522 5523 5524 5525 5526 5528 5529 5530 5531 5532 5533 5534 5535 5536 5536 5537 5538 5539 5542 5544 5545 5547 5550 5553 5554 5555 5556 5557 5559
5528 5526 5525 5524 5523 5521 5519 5517 5516 5515 5514 5514 5513 5513 5513 5513 5514 5515 5517 5518 5519 5520 5522 5522 5523 5524 5525 5526 5526 5527 5527 5528 5530 5532 5534 5536 5539 5541 5543 5543 5544 5545 5546
5519 5517 5516 5515 5514 5512 5510 5508 5507 5507 5506 5506 5505 5504 5504 5505 5505 5506 5508 5509 5510 5512 5513 5513 5514 5515 5516 5516 5516 5517 5517 5519 5520 5522 5523 5526 5528 5530 5531 5531 5532 5533 5535
5510 5509 5507 5506 5505 5503 5501 5500 5499 5499 5498 5498 5498 5497 5497 5497 5498 5498 5500 5501 5503 5503 5504 5505 5506 5506 5506 5507 5507 5507 5509 5510 5511 5513 5514 5515 5517 5519 5520 5521 5521 5522 5523
5502 5500 5499 5497 5496 5495 5493 5492 5491 5491 5491 5491 5491 5491 5491 5491 5491 5491 5493 5494 5495 5496 5496 5497 5497 5498 5498 5498 5499 5499 5500 5501 5501 5503 5504 5505 5506 5507 5509 5510 5511 5511 5512